星链-31732 (STARLINK-31732 )

导读 | 星芒AI

STARLINK-31732 是 SpaceX Starlink 卫星互联网项目中的第 31732 颗卫星,属于低轨卫星群,旨在为全球用户提供高速互联网服务。该卫星于近期发射,部署在近地轨道,具备先进通信技术,支持宽带连接。Starlink 项目通过大规模部署卫星,提升网络覆盖范围,尤其在偏远地区。STARLINK-31732 的加入进一步增强了系统的稳定性和数据传输能力,助力实现全球无缝网络连接。

基本信息
目录编号:
60099
目录名称:
STARLINK-31732
国际标识:
2024-117J
轨道中心:
EARTH
卫星名称:
星链-31732
卫星全名:
星链-31732 (STARLINK-31732 )
卫星状态:
在轨 (已飞行497 天)
发射日期:
2024-06-23 UTC
国别 :
美国 (US)
星等 :
--
轨道信息
数据来源 国际轨道数据
星历时间: 2025-11-01T22:51:51+0800
19小时前
查看轨道信息
半长轴: 6853.387km
偏心率: 0.0001308
轨道倾角: 53.161°
近地点辐角 88.921°
升交点赤经 271.622°
平近点角 271.194°
近地点: 474.355km
远地点: 476.149km
周期: 94.106分钟
每日圈数: 15.301885
详细信息
固有亮度:
5
最大亮度:
1.5
卫星平台:
Starlink v2.0 mini
覆盖范围:
全球
运营商:
太空探索技术公司
运营商所在国:
美国
制造商(研发单位):
太空探索技术公司
制造商所在国:
美国
使用方式:
暂无
卫星简介
星链(Starlink)计划是由太空探索技术公司(SpaceX)提出的一个巨型低轨卫星互联网星座项目,计划在2019年至2024年间在太空搭建由约1.2万颗卫星组成的“星链”网络,其中1584颗将部署在地球上空550千米处的近地轨道,并从2020年开始工作。该卫星仍在工作。
2D轨道图
3D轨道图
轨道高度分析图
轨道倾角分析图
轨道综合分析图
查看轨道综合分析图